Location: Dallas
(32.7830°N, 96.8000°W)
Time: 08:57:01
(UTC-06:00)

Tiangong 2 - Visible Passes

Search period start: 21 February 2018 00:00
Search period end: 03 March 2018 00:00
Orbit: 384 x 388 km, 42.8° (Epoch: 21 February)

Date Brightness Start Highest point End Pass type
(mag) Time Alt. Az. Time Alt. Az. Time Alt. Az.
21 Feb 1.2 19:34:42 10° NW 19:37:50 55° NNE 19:38:03 54° NE visible
22 Feb 3.2 20:12:39 10° WNW 20:14:34 26° WSW 20:14:34 26° WSW visible
23 Feb 1.3 19:13:28 10° WNW 19:16:38 70° SSW 19:18:56 17° SE visible
24 Feb 3.8 19:52:09 10° W 19:54:10 16° SW 19:55:45 12° S visible
25 Feb 2.9 18:52:27 10° WNW 18:55:19 31° SW 18:58:10 10° SSE visible
